Powrót do katalogu

VENERA 9 BUS

AktywnyNaukaVLEO
NORAD 7915·PAYLOAD·🇷🇺 Russia

Wystrzelony Jun 8, 1975 z Baikonur Cosmodrome

Loading…

Następne Przeloty (najbliższe 24 godziny)

TLE

NieaktualneSource: Space-Track

Epoka: Jun 8, 1975, 03:54 UTC

1 07915U 75050  A 75159.16307445  .00087766 +00000-0 +00000-0 0  9990
2 07915 051.3781 304.1934 0191385 357.0104 002.9695 15.88322875000011

Śledź VENERA 9 BUS w czasie rzeczywistym z AllMySat

Download on the App Store